Location: Plzen
(49.7500°N, 13.3670°E)
Time: 01:01:11
(UTC+02:00)

ISS - Visible Passes

Search period start: 28 October 2021 00:00
Search period end: 06 November 2021 23:00
Orbit: 417 x 423 km, 51.6° (Epoch: 27 October)

Date Brightness Start Highest point End Pass type
(mag) Time Alt. Az. Time Alt. Az. Time Alt. Az.
28 Oct -3.2 05:35:41 54° SE 05:35:41 54° SE 05:38:39 10° ENE visible
28 Oct -3.6 07:08:50 10° W 07:12:11 62° N 07:15:32 10° ENE visible
29 Oct -0.7 04:50:27 16° E 04:50:27 16° E 04:51:20 10° E visible
29 Oct -3.7 06:23:26 31° W 06:24:52 70° N 06:28:15 10° ENE visible
30 Oct -3.2 05:38:10 58° ENE 05:38:10 58° ENE 05:40:58 10° ENE visible
30 Oct -3.5 07:11:13 10° WNW 07:14:34 62° N 07:17:55 10° E visible
31 Oct -0.7 03:52:51 16° ENE 03:52:51 16° ENE 03:53:40 10° ENE visible
31 Oct -3.5 05:25:49 30° WNW 05:27:14 60° N 05:30:35 10° E visible
01 Nov -3.0 04:40:29 51° NE 04:40:29 51° NE 04:43:15 10° ENE visible
01 Nov -3.7 06:13:30 10° WNW 06:16:54 80° NNE 06:20:16 10° ESE visible
02 Nov -0.7 03:55:08 16° ENE 03:55:08 16° ENE 03:55:56 10° ENE visible
02 Nov -3.6 05:28:06 31° WNW 05:29:34 68° N 05:32:56 10° E visible
03 Nov -3.1 04:42:45 52° NE 04:42:45 52° NE 04:45:34 10° E visible
03 Nov -3.5 06:15:45 10° WNW 06:19:05 60° SSW 06:22:24 10° SE visible
04 Nov -0.7 03:57:25 16° ENE 03:57:25 16° ENE 03:58:12 10° E visible
04 Nov -3.8 05:30:24 32° WNW 05:31:48 81° SSW 05:35:10 10° ESE visible
05 Nov -3.2 04:45:05 57° E 04:45:05 57° E 04:47:51 10° ESE visible
05 Nov -2.5 06:18:06 10° W 06:21:06 30° SW 06:24:04 10° SSE visible
06 Nov -0.6 03:59:49 15° E 03:59:49 15° E 04:00:29 10° E visible
06 Nov -3.2 05:32:48 31° WSW 05:33:52 42° SSW 05:37:05 10° SE visible
